TimeCST,TemperatureF,Dew PointF,Humidity,Sea Level PressureIn,VisibilityMPH,Wind Direction,Wind SpeedMPH,Gust SpeedMPH,PrecipitationIn,Events,Conditions,WindDirDegrees,DateUTC
12:53 AM,68.0,66.0,93,29.87,10.0,South,4.6,-,N/A,,Clear,170,2012-12-07 06:53:00
1:53 AM,68.0,66.0,93,29.86,10.0,SSE,4.6,-,N/A,,Clear,160,2012-12-07 07:53:00
2:53 AM,68.0,66.0,93,29.86,10.0,South,4.6,-,N/A,,Clear,170,2012-12-07 08:53:00
3:53 AM,68.0,66.0,93,29.85,10.0,South,4.6,-,N/A,,Partly Cloudy,170,2012-12-07 09:53:00
4:53 AM,68.0,66.0,93,29.84,10.0,SSE,4.6,-,N/A,,Clear,160,2012-12-07 10:53:00
5:53 AM,68.0,66.0,93,29.85,10.0,SSE,4.6,-,N/A,,Clear,160,2012-12-07 11:53:00
6:53 AM,68.0,66.9,96,29.86,10.0,SSE,4.6,-,N/A,,Clear,150,2012-12-07 12:53:00
7:53 AM,70.0,68.0,93,29.87,10.0,SSE,4.6,-,N/A,,Clear,150,2012-12-07 13:53:00
8:53 AM,72.0,69.1,91,29.88,10.0,SSE,5.8,-,N/A,,Clear,150,2012-12-07 14:53:00
9:53 AM,75.0,69.1,82,29.89,10.0,SSE,8.1,-,N/A,,Clear,150,2012-12-07 15:53:00
10:53 AM,77.0,69.1,76,29.89,10.0,SSE,10.4,-,N/A,,Clear,160,2012-12-07 16:53:00
11:53 AM,78.1,68.0,71,29.86,10.0,South,9.2,-,N/A,,Clear,180,2012-12-07 17:53:00
12:53 PM,79.0,68.0,69,29.83,10.0,South,11.5,20.7,N/A,,Clear,170,2012-12-07 18:53:00
1:53 PM,79.0,66.9,66,29.81,10.0,South,11.5,18.4,N/A,,Clear,180,2012-12-07 19:53:00
2:53 PM,78.1,68.0,71,29.79,10.0,SSE,9.2,17.3,N/A,,Clear,160,2012-12-07 20:53:00
3:53 PM,77.0,66.9,71,29.79,10.0,SSE,9.2,-,N/A,,Clear,150,2012-12-07 21:53:00
4:53 PM,75.0,68.0,79,29.79,10.0,SSE,10.4,-,N/A,,Clear,150,2012-12-07 22:53:00
5:53 PM,73.0,68.0,84,29.81,10.0,SSE,8.1,-,N/A,,Clear,150,2012-12-07 23:53:00
7:53 PM,71.1,68.0,90,29.84,10.0,SE,8.1,-,N/A,,Clear,140,2012-12-08 01:53:00
8:53 PM,71.1,68.0,90,29.85,10.0,SSE,6.9,-,N/A,,Clear,150,2012-12-08 02:53:00
9:53 PM,72.0,69.1,91,29.86,10.0,SSE,6.9,-,N/A,,Clear,160,2012-12-08 03:53:00
10:53 PM,72.0,68.0,87,29.84,10.0,South,9.2,-,N/A,,Clear,170,2012-12-08 04:53:00
11:53 PM,72.0,68.0,87,29.84,10.0,SSE,6.9,-,N/A,,Partly Cloudy,160,2012-12-08 05:53:00